Location: Middle Street
(51.7167°N, 0.0333°E)
Time: 23:05:26
(UTC+00:00)

NOSS 3-4 (C) - Pass Details

Date: 20 January 2021
Orbit: 878 x 1335 km, 63.4° (Epoch: 16 February)

Event Time Altitude Azimuth Distance (km) Brightness Sun altitude
Rises 17:53:09 0° 252° (WSW) 3,502 8.5 -12.9°
Reaches altitude 10° 17:55:42 10° 258° (WSW) 2,594 7.2 -13.2°
Maximum altitude 18:01:28 46° 331° (NNW) 1,275 4.2 -14.1°
Enters shadow 18:06:55 14° 41° (NE) 2,541 5.2 -14.9°
